Date,TemperatureHighF,TemperatureAvgF,TemperatureLowF,DewpointHighF,DewpointAvgF,DewpointLowF,HumidityHigh,HumidityAvg,HumidityLow,PressureMaxIn,PressureMinIn,WindSpeedMaxMPH,WindSpeedAvgMPH,GustSpeedMaxMPH,PrecipitationSumIn
2013-2-1,33,31,28,14,10,6,49,41,35,30.18,29.99,28,10,45,0.00
2013-2-2,37,34,28,8,2,0,42,26,21,30.30,30.18,33,7,42,0.00
2013-2-3,42,38,34,1,-1,-11,22,19,10,30.22,29.45,33,8,37,0.00
2013-2-4,34,33,32,0,-3,-4,24,20,19,29.91,29.73,23,16,31,0.00
2013-2-5,45,36,33,20,2,-3,38,24,20,29.87,29.45,16,12,7,0.00
2013-2-6,43,40,28,18,14,10,63,35,30,29.94,29.63,17,8,21,0.00
2013-2-7,36,29,18,21,10,-11,92,49,14,30.23,29.95,13,2,19,0.01
2013-2-8,38,33,28,15,-6,-18,49,18,11,30.11,29.64,6,2,12,0.00
2013-2-9,33,24,18,20,14,6,91,68,46,29.67,29.52,23,4,30,0.00
2013-2-10,23,18,11,16,7,0,82,61,41,30.15,29.59,25,3,31,0.00
2013-2-11,16,12,6,12,7,2,85,82,76,30.30,30.15,5,1,8,0.00
2013-2-12,29,21,11,5,-5,-17,76,32,14,30.30,30.15,27,4,33,0.02
2013-2-13,32,28,22,10,4,-1,44,36,26,30.17,29.99,29,11,45,0.00
2013-2-14,30,20,11,16,8,4,85,65,36,30.35,30.01,25,4,40,0.00
2013-2-15,28,21,9,16,8,-1,83,60,28,30.50,30.35,36,6,47,0.09
2013-2-16,35,33,27,8,6,5,44,32,28,30.37,29.93,43,16,55,0.00
2013-2-17,44,40,21,12,-3,-10,65,18,10,29.96,29.42,25,8,28,0.00
2013-2-18,27,21,14,11,-1,-7,64,37,23,30.19,29.58,25,6,35,0.00
2013-2-19,34,23,12,9,2,-18,58,41,13,30.19,29.89,6,2,8,0.00
2013-2-20,27,21,13,17,8,2,87,60,38,29.88,29.68,8,2,12,0.00
2013-2-21,18,14,10,15,10,5,86,84,81,30.07,29.75,7,2,9,0.00
2013-2-22,24,18,12,16,9,-1,83,71,41,30.12,29.99,18,3,30,0.00
2013-2-23,36,28,18,17,5,-3,86,39,30,29.99,29.68,25,6,47,0.01
2013-2-24,20,18,11,18,14,6,89,87,82,30.24,29.78,21,4,26,0.00
2013-2-25,26,19,10,18,11,5,83,71,56,30.24,29.98,9,2,15,0.07
2013-2-26,24,20,14,19,12,5,88,73,50,30.25,29.92,11,2,17,0.00
2013-2-27,27,19,11,8,0,-11,76,44,24,30.41,30.25,15,5,28,0.01
2013-2-28,27,23,17,1,-2,-7,39,32,28,30.41,30.23,28,9,37,0.00